Time,TemperatureF,DewpointF,PressureIn,WindDirection,WindDirectionDegrees,WindSpeedMPH,WindSpeedGustMPH,Humidity,HourlyPrecipIn,Conditions,Clouds,dailyrainin,SoftwareType,DateUTC
2013-03-07 00:00:00,33.2,24.0,29.72,NNE,22,2.6,7.5,66,0.00,,,0.00,Rainwise IP-100,2013-03-07 05:00:00,
2013-03-07 00:05:00,33.2,24.0,29.72,North,360,4.4,7.2,66,0.00,,,0.00,Rainwise IP-100,2013-03-07 05:05:00,
2013-03-07 00:10:00,33.2,24.0,29.72,North,360,3.3,9.1,66,0.00,,,0.00,Rainwise IP-100,2013-03-07 05:10:00,
2013-03-07 00:15:00,33.1,24.0,29.72,NNE,22,4.4,7.7,66,0.00,,,0.00,Rainwise IP-100,2013-03-07 05:15:00,
2013-03-07 00:20:00,33.1,23.0,29.72,NNE,22,5.8,10.3,65,0.00,,,0.00,Rainwise IP-100,2013-03-07 05:20:00,
2013-03-07 00:25:00,33.1,23.0,29.72,NNW,337,6.8,7.5,65,0.00,,,0.00,Rainwise IP-100,2013-03-07 05:25:00,
2013-03-07 00:30:00,33.0,23.0,29.72,NE,45,2.1,7.5,65,0.00,,,0.00,Rainwise IP-100,2013-03-07 05:30:00,
2013-03-07 00:35:00,33.0,23.0,29.72,North,360,7.2,8.2,65,0.00,,,0.00,Rainwise IP-100,2013-03-07 05:35:00,
2013-03-07 00:40:00,33.1,23.0,29.72,NNE,22,3.7,7.5,65,0.00,,,0.00,Rainwise IP-100,2013-03-07 05:40:00,
2013-03-07 00:45:00,33.1,23.0,29.72,NNE,22,5.4,7.2,65,0.00,,,0.00,Rainwise IP-100,2013-03-07 05:45:00,
2013-03-07 00:50:00,33.1,23.0,29.72,NNE,22,4.7,6.5,65,0.00,,,0.00,Rainwise IP-100,2013-03-07 05:50:00,
2013-03-07 00:55:00,33.2,23.0,29.72,NE,45,9.1,10.3,64,0.00,,,0.00,Rainwise IP-100,2013-03-07 05:55:00,
2013-03-07 01:00:00,33.3,23.0,29.73,North,360,5.8,9.3,64,0.00,,,0.00,Rainwise IP-100,2013-03-07 06:00:00,
2013-03-07 01:05:00,33.2,23.0,29.73,NNW,337,3.3,7.2,64,0.00,,,0.00,Rainwise IP-100,2013-03-07 06:05:00,
2013-03-07 01:11:00,33.1,23.0,29.73,ENE,67,4.0,5.4,64,0.00,,,0.00,Rainwise IP-100,2013-03-07 06:11:00,
2013-03-07 01:16:00,33.1,23.0,29.73,NNE,22,1.6,5.4,64,0.00,,,0.00,Rainwise IP-100,2013-03-07 06:16:00,
2013-03-07 01:21:00,33.1,23.0,29.73,North,360,0.0,4.0,64,0.00,,,0.00,Rainwise IP-100,2013-03-07 06:21:00,
2013-03-07 01:26:00,33.1,23.0,29.74,NNE,22,2.1,4.0,64,0.00,,,0.00,Rainwise IP-100,2013-03-07 06:26:00,
2013-03-07 01:31:00,33.1,23.0,29.74,NNE,22,5.6,5.6,65,0.00,,,0.00,Rainwise IP-100,2013-03-07 06:31:00,
2013-03-07 01:36:00,33.1,23.0,29.75,NE,45,2.3,7.0,64,0.00,,,0.00,Rainwise IP-100,2013-03-07 06:36:00,
2013-03-07 01:41:00,33.1,23.0,29.74,NE,45,6.1,7.2,64,0.00,,,0.00,Rainwise IP-100,2013-03-07 06:41:00,
2013-03-07 01:46:00,33.0,23.0,29.74,NNW,337,8.4,10.0,65,0.00,,,0.00,Rainwise IP-100,2013-03-07 06:46:00,
2013-03-07 01:51:00,33.1,23.0,29.73,ENE,67,7.2,12.8,65,0.00,,,0.00,Rainwise IP-100,2013-03-07 06:51:00,
2013-03-07 01:56:00,33.3,23.0,29.74,ENE,67,7.7,9.1,65,0.00,,,0.00,Rainwise IP-100,2013-03-07 06:56:00,
2013-03-07 02:01:00,33.3,23.0,29.73,NE,45,6.3,10.7,65,0.00,,,0.00,Rainwise IP-100,2013-03-07 07:01:00,
2013-03-07 02:06:00,33.3,23.0,29.73,East,90,8.6,10.5,65,0.00,,,0.00,Rainwise IP-100,2013-03-07 07:06:00,
2013-03-07 02:11:00,33.2,23.0,29.73,NNE,22,5.8,9.8,65,0.00,,,0.00,Rainwise IP-100,2013-03-07 07:11:00,
2013-03-07 02:16:00,33.0,23.0,29.72,NNE,22,5.8,7.9,65,0.00,,,0.00,Rainwise IP-100,2013-03-07 07:16:00,
2013-03-07 02:21:00,32.9,24.0,29.73,NNE,22,4.7,7.0,66,0.00,,,0.00,Rainwise IP-100,2013-03-07 07:21:00,
2013-03-07 02:27:00,32.9,24.0,29.72,NNE,22,4.4,6.1,66,0.00,,,0.00,Rainwise IP-100,2013-03-07 07:27:00,
2013-03-07 02:32:00,32.9,24.0,29.72,North,360,5.6,6.8,66,0.00,,,0.00,Rainwise IP-100,2013-03-07 07:32:00,
2013-03-07 02:37:00,32.8,24.0,29.72,NNE,22,5.4,6.8,66,0.00,,,0.00,Rainwise IP-100,2013-03-07 07:37:00,
2013-03-07 02:42:00,32.7,24.0,29.72,NE,45,2.8,5.6,66,0.00,,,0.00,Rainwise IP-100,2013-03-07 07:42:00,
2013-03-07 02:45:00,32.7,24.0,29.72,NNW,337,5.8,7.9,67,0.00,,,0.00,Rainwise IP-100,2013-03-07 07:45:00,
2013-03-07 02:46:00,32.7,24.0,29.72,NNW,337,7.7,7.9,67,0.00,,,0.00,Rainwise IP-100,2013-03-07 07:46:00,
2013-03-07 02:51:00,32.6,24.0,29.72,NE,45,7.0,7.0,67,0.00,,,0.00,Rainwise IP-100,2013-03-07 07:51:00,
2013-03-07 02:56:00,32.6,24.0,29.71,NNE,22,6.1,9.1,67,0.00,,,0.00,Rainwise IP-100,2013-03-07 07:56:00,
2013-03-07 03:01:00,32.6,24.0,29.71,NNE,22,6.1,8.4,67,0.00,,,0.00,Rainwise IP-100,2013-03-07 08:01:00,
2013-03-07 03:06:00,32.5,24.0,29.71,NE,45,4.9,9.3,67,0.00,,,0.00,Rainwise IP-100,2013-03-07 08:06:00,
2013-03-07 03:11:00,32.4,23.0,29.71,NNW,337,7.9,9.8,67,0.00,,,0.00,Rainwise IP-100,2013-03-07 08:11:00,
2013-03-07 03:16:00,32.5,24.0,29.71,NNE,22,9.6,10.3,67,0.00,,,0.00,Rainwise IP-100,2013-03-07 08:16:00,
2013-03-07 03:21:00,32.5,24.0,29.71,NE,45,6.3,10.5,67,0.00,,,0.00,Rainwise IP-100,2013-03-07 08:21:00,
2013-03-07 03:26:00,32.4,23.0,29.71,NNE,22,2.8,8.6,67,0.00,,,0.00,Rainwise IP-100,2013-03-07 08:26:00,
2013-03-07 03:31:00,32.3,23.0,29.71,NE,45,3.3,5.4,68,0.00,,,0.00,Rainwise IP-100,2013-03-07 08:31:00,
2013-03-07 03:36:00,32.2,23.0,29.71,NE,45,3.7,7.2,68,0.00,,,0.00,Rainwise IP-100,2013-03-07 08:36:00,
2013-03-07 03:42:00,32.3,23.0,29.71,NNE,22,4.7,7.9,68,0.00,,,0.00,Rainwise IP-100,2013-03-07 08:42:00,
2013-03-07 03:47:00,32.3,23.0,29.71,NNE,22,3.0,7.7,68,0.00,,,0.00,Rainwise IP-100,2013-03-07 08:47:00,
2013-03-07 03:52:00,32.2,23.0,29.71,NNE,22,2.3,7.2,68,0.00,,,0.00,Rainwise IP-100,2013-03-07 08:52:00,
2013-03-07 03:57:00,32.1,23.0,29.71,NNE,22,4.2,5.8,68,0.00,,,0.00,Rainwise IP-100,2013-03-07 08:57:00,
2013-03-07 04:02:00,32.1,23.0,29.71,North,360,5.4,5.6,68,0.00,,,0.00,Rainwise IP-100,2013-03-07 09:02:00,
2013-03-07 04:07:00,32.1,23.0,29.71,NNE,22,4.4,9.8,68,0.00,,,0.00,Rainwise IP-100,2013-03-07 09:07:00,
2013-03-07 04:12:00,32.0,23.0,29.71,North,360,5.4,9.1,68,0.00,,,0.00,Rainwise IP-100,2013-03-07 09:12:00,
2013-03-07 04:17:00,32.0,23.0,29.71,NE,45,3.7,8.2,68,0.00,,,0.00,Rainwise IP-100,2013-03-07 09:17:00,
2013-03-07 04:22:00,32.0,23.0,29.71,NNE,22,1.4,4.4,69,0.00,,,0.00,Rainwise IP-100,2013-03-07 09:22:00,
2013-03-07 04:27:00,31.9,23.0,29.71,North,360,3.3,4.9,69,0.00,,,0.00,Rainwise IP-100,2013-03-07 09:27:00,
2013-03-07 04:32:00,31.9,24.0,29.71,NNE,22,4.9,6.1,70,0.00,,,0.00,Rainwise IP-100,2013-03-07 09:32:00,
2013-03-07 04:37:00,31.9,24.0,29.71,North,360,2.3,5.6,70,0.00,,,0.00,Rainwise IP-100,2013-03-07 09:37:00,
2013-03-07 04:42:00,31.8,24.0,29.71,NE,45,3.3,4.9,70,0.00,,,0.00,Rainwise IP-100,2013-03-07 09:42:00,
2013-03-07 04:47:00,31.8,24.0,29.71,NE,45,3.3,5.1,70,0.00,,,0.00,Rainwise IP-100,2013-03-07 09:47:00,
2013-03-07 04:52:00,31.7,24.0,29.71,NE,45,2.6,4.9,70,0.00,,,0.00,Rainwise IP-100,2013-03-07 09:52:00,
2013-03-07 04:58:00,31.7,24.0,29.71,NNE,22,1.9,5.6,71,0.00,,,0.00,Rainwise IP-100,2013-03-07 09:58:00,
2013-03-07 05:03:00,31.7,24.0,29.71,NNE,22,2.6,5.4,71,0.00,,,0.00,Rainwise IP-100,2013-03-07 10:03:00,
2013-03-07 05:08:00,31.6,24.0,29.71,NNE,22,4.4,7.2,71,0.00,,,0.00,Rainwise IP-100,2013-03-07 10:08:00,
2013-03-07 05:13:00,31.6,24.0,29.71,NNE,22,1.9,7.2,71,0.00,,,0.00,Rainwise IP-100,2013-03-07 10:13:00,
2013-03-07 05:18:00,31.5,24.0,29.71,North,360,7.0,10.0,71,0.00,,,0.00,Rainwise IP-100,2013-03-07 10:18:00,
2013-03-07 05:23:00,31.5,24.0,29.71,NNE,22,2.1,8.2,71,0.00,,,0.00,Rainwise IP-100,2013-03-07 10:23:00,
2013-03-07 05:28:00,31.5,24.0,29.71,NNE,22,4.2,7.0,71,0.00,,,0.00,Rainwise IP-100,2013-03-07 10:28:00,
2013-03-07 05:33:00,31.4,23.0,29.72,NE,45,3.5,7.0,72,0.00,,,0.00,Rainwise IP-100,2013-03-07 10:33:00,
2013-03-07 05:38:00,31.5,24.0,29.72,NNE,22,4.4,8.6,72,0.00,,,0.00,Rainwise IP-100,2013-03-07 10:38:00,
2013-03-07 05:43:00,31.5,24.0,29.72,NNE,22,3.5,7.2,72,0.00,,,0.00,Rainwise IP-100,2013-03-07 10:43:00,
2013-03-07 05:48:00,31.5,24.0,29.72,NE,45,2.8,6.8,72,0.00,,,0.00,Rainwise IP-100,2013-03-07 10:48:00,
2013-03-07 05:53:00,31.4,23.0,29.71,NE,45,4.2,4.9,72,0.00,,,0.00,Rainwise IP-100,2013-03-07 10:53:00,
2013-03-07 05:58:00,31.3,23.0,29.72,NNE,22,2.8,5.4,72,0.00,,,0.00,Rainwise IP-100,2013-03-07 10:58:00,
2013-03-07 06:03:00,31.3,23.0,29.72,NE,45,3.3,5.4,72,0.00,,,0.00,Rainwise IP-100,2013-03-07 11:03:00,
2013-03-07 06:08:00,31.3,23.0,29.72,NNE,22,3.3,5.8,72,0.00,,,0.00,Rainwise IP-100,2013-03-07 11:08:00,
2013-03-07 06:14:00,31.2,23.0,29.72,ENE,67,4.0,7.2,73,0.00,,,0.00,Rainwise IP-100,2013-03-07 11:14:00,
2013-03-07 06:19:00,31.1,23.0,29.72,NNE,22,2.3,5.4,73,0.00,,,0.00,Rainwise IP-100,2013-03-07 11:19:00,
2013-03-07 06:24:00,31.1,23.0,29.71,NNE,22,3.3,7.0,73,0.00,,,0.00,Rainwise IP-100,2013-03-07 11:24:00,
2013-03-07 06:29:00,31.1,23.0,29.72,NNE,22,2.6,5.1,73,0.00,,,0.00,Rainwise IP-100,2013-03-07 11:29:00,
2013-03-07 06:34:00,31.0,23.0,29.71,NE,45,2.8,4.4,73,0.00,,,0.00,Rainwise IP-100,2013-03-07 11:34:00,
2013-03-07 06:40:00,31.0,24.0,29.71,North,360,4.2,6.5,74,0.00,,,0.00,Rainwise IP-100,2013-03-07 11:40:00,
2013-03-07 06:45:00,31.0,24.0,29.72,NNE,22,3.0,5.6,74,0.00,,,0.00,Rainwise IP-100,2013-03-07 11:45:00,
2013-03-07 06:50:00,31.0,24.0,29.71,NNE,22,2.1,7.7,74,0.00,,,0.00,Rainwise IP-100,2013-03-07 11:50:00,
2013-03-07 06:55:00,31.0,24.0,29.71,NE,45,2.8,8.4,74,0.00,,,0.00,Rainwise IP-100,2013-03-07 11:55:00,
2013-03-07 07:00:00,31.1,23.0,29.72,NE,45,4.2,8.9,73,0.00,,,0.00,Rainwise IP-100,2013-03-07 12:00:00,
2013-03-07 07:05:00,31.1,23.0,29.72,ENE,67,4.9,10.3,73,0.00,,,0.00,Rainwise IP-100,2013-03-07 12:05:00,
2013-03-07 07:10:00,31.1,23.0,29.72,NE,45,4.0,7.5,73,0.00,,,0.00,Rainwise IP-100,2013-03-07 12:10:00,
2013-03-07 07:15:00,31.0,24.0,29.72,ENE,67,6.5,7.5,74,0.00,,,0.00,Rainwise IP-100,2013-03-07 12:15:00,
2013-03-07 07:20:00,31.1,24.0,29.71,NNE,22,9.6,9.6,74,0.00,,,0.00,Rainwise IP-100,2013-03-07 12:20:00,
2013-03-07 07:25:00,31.3,23.0,29.71,NNW,337,8.6,13.8,73,0.00,,,0.00,Rainwise IP-100,2013-03-07 12:25:00,
2013-03-07 07:30:00,31.4,23.0,29.71,NNE,22,7.9,10.3,72,0.00,,,0.00,Rainwise IP-100,2013-03-07 12:30:00,
2013-03-07 07:35:00,31.4,23.0,29.72,NNE,22,6.5,10.0,72,0.00,,,0.00,Rainwise IP-100,2013-03-07 12:35:00,
2013-03-07 07:41:00,31.5,24.0,29.71,NNE,22,5.1,11.4,72,0.00,,,0.00,Rainwise IP-100,2013-03-07 12:41:00,
2013-03-07 07:46:00,31.6,24.0,29.71,NE,45,7.5,12.1,71,0.00,,,0.00,Rainwise IP-100,2013-03-07 12:46:00,
2013-03-07 07:51:00,31.6,24.0,29.71,ENE,67,7.7,11.9,71,0.00,,,0.00,Rainwise IP-100,2013-03-07 12:51:00,
2013-03-07 07:56:00,31.6,24.0,29.71,NE,45,4.7,10.0,71,0.00,,,0.00,Rainwise IP-100,2013-03-07 12:56:00,
2013-03-07 08:01:00,31.6,24.0,29.72,ENE,67,5.6,13.5,71,0.00,,,0.00,Rainwise IP-100,2013-03-07 13:01:00,
2013-03-07 08:06:00,31.6,24.0,29.72,NNE,22,5.6,10.3,71,0.00,,,0.00,Rainwise IP-100,2013-03-07 13:06:00,
2013-03-07 08:11:00,31.7,24.0,29.72,NNE,22,4.0,10.0,71,0.00,,,0.00,Rainwise IP-100,2013-03-07 13:11:00,
2013-03-07 08:16:00,31.8,24.0,29.72,ENE,67,6.5,8.9,71,0.00,,,0.00,Rainwise IP-100,2013-03-07 13:16:00,
2013-03-07 08:21:00,31.8,24.0,29.72,NE,45,4.2,7.2,71,0.00,,,0.00,Rainwise IP-100,2013-03-07 13:21:00,
2013-03-07 08:26:00,31.7,24.0,29.72,NE,45,8.4,10.3,71,0.00,,,0.00,Rainwise IP-100,2013-03-07 13:26:00,
2013-03-07 08:31:00,31.7,24.0,29.72,NE,45,6.1,12.4,71,0.00,,,0.00,Rainwise IP-100,2013-03-07 13:31:00,
2013-03-07 08:36:00,31.8,24.0,29.72,NE,45,4.2,7.5,71,0.00,,,0.00,Rainwise IP-100,2013-03-07 13:36:00,
2013-03-07 08:41:00,31.9,24.0,29.72,ENE,67,5.1,8.6,71,0.00,,,0.00,Rainwise IP-100,2013-03-07 13:41:00,
2013-03-07 08:46:00,31.9,24.0,29.71,NNE,22,6.5,10.5,70,0.00,,,0.00,Rainwise IP-100,2013-03-07 13:46:00,
2013-03-07 08:51:00,32.0,24.0,29.72,ENE,67,3.5,10.7,70,0.00,,,0.00,Rainwise IP-100,2013-03-07 13:51:00,
2013-03-07 08:57:00,32.0,24.0,29.72,NNE,22,3.5,9.6,70,0.00,,,0.00,Rainwise IP-100,2013-03-07 13:57:00,
2013-03-07 09:02:00,32.1,24.0,29.72,North,360,6.3,10.0,70,0.00,,,0.00,Rainwise IP-100,2013-03-07 14:02:00,
2013-03-07 09:07:00,32.2,23.0,29.72,ENE,67,7.0,10.7,69,0.00,,,0.00,Rainwise IP-100,2013-03-07 14:07:00,
2013-03-07 09:12:00,32.3,23.0,29.72,NE,45,7.7,11.4,69,0.00,,,0.00,Rainwise IP-100,2013-03-07 14:12:00,
2013-03-07 09:17:00,32.3,23.0,29.72,ENE,67,4.9,10.7,69,0.00,,,0.00,Rainwise IP-100,2013-03-07 14:17:00,
2013-03-07 09:22:00,32.4,23.0,29.72,ENE,67,7.5,10.3,69,0.00,,,0.00,Rainwise IP-100,2013-03-07 14:22:00,
2013-03-07 09:27:00,32.6,24.0,29.71,ENE,67,7.2,11.2,69,0.00,,,0.00,Rainwise IP-100,2013-03-07 14:27:00,
2013-03-07 09:32:00,32.6,24.0,29.71,ENE,67,7.9,12.1,68,0.00,,,0.00,Rainwise IP-100,2013-03-07 14:32:00,
2013-03-07 09:37:00,32.6,24.0,29.71,NNE,22,10.7,11.9,68,0.00,,,0.00,Rainwise IP-100,2013-03-07 14:37:00,
2013-03-07 09:42:00,32.6,24.0,29.71,ENE,67,4.9,12.6,68,0.00,,,0.00,Rainwise IP-100,2013-03-07 14:42:00,
2013-03-07 09:47:00,32.7,24.0,29.71,NE,45,9.3,11.2,68,0.00,,,0.00,Rainwise IP-100,2013-03-07 14:47:00,
2013-03-07 09:52:00,32.8,24.0,29.71,ENE,67,4.2,10.3,68,0.00,,,0.00,Rainwise IP-100,2013-03-07 14:52:00,
2013-03-07 09:57:00,33.0,24.0,29.71,NNE,22,4.2,10.5,67,0.00,,,0.00,Rainwise IP-100,2013-03-07 14:57:00,
2013-03-07 10:02:00,33.1,24.0,29.70,ENE,67,7.2,11.7,67,0.00,,,0.00,Rainwise IP-100,2013-03-07 15:02:00,
2013-03-07 10:07:00,33.2,24.0,29.70,ENE,67,8.6,10.0,66,0.00,,,0.00,Rainwise IP-100,2013-03-07 15:07:00,
2013-03-07 10:13:00,33.4,24.0,29.70,NE,45,3.5,9.6,66,0.00,,,0.00,Rainwise IP-100,2013-03-07 15:13:00,
2013-03-07 10:18:00,33.6,24.0,29.69,ENE,67,5.6,11.2,66,0.00,,,0.00,Rainwise IP-100,2013-03-07 15:18:00,
2013-03-07 10:23:00,33.8,24.0,29.70,NE,45,9.6,11.2,66,0.00,,,0.00,Rainwise IP-100,2013-03-07 15:23:00,
2013-03-07 10:28:00,33.7,24.0,29.70,ENE,67,7.9,10.5,66,0.00,,,0.00,Rainwise IP-100,2013-03-07 15:28:00,
2013-03-07 10:33:00,33.8,24.0,29.70,NE,45,5.8,8.9,66,0.00,,,0.00,Rainwise IP-100,2013-03-07 15:33:00,
2013-03-07 10:38:00,34.0,24.0,29.70,NE,45,5.8,8.9,66,0.00,,,0.00,Rainwise IP-100,2013-03-07 15:38:00,
2013-03-07 10:43:00,34.3,24.0,29.69,NE,45,3.0,7.5,65,0.00,,,0.00,Rainwise IP-100,2013-03-07 15:43:00,
2013-03-07 10:48:00,34.4,24.0,29.69,NNE,22,4.0,10.0,65,0.00,,,0.00,Rainwise IP-100,2013-03-07 15:48:00,
2013-03-07 10:53:00,34.5,24.0,29.70,ENE,67,7.0,9.8,64,0.00,,,0.00,Rainwise IP-100,2013-03-07 15:53:00,
2013-03-07 10:58:00,34.7,24.0,29.70,NE,45,4.9,10.5,64,0.00,,,0.00,Rainwise IP-100,2013-03-07 15:58:00,
2013-03-07 11:03:00,34.9,24.0,29.70,NNE,22,5.4,7.2,64,0.00,,,0.00,Rainwise IP-100,2013-03-07 16:03:00,
2013-03-07 11:08:00,35.0,24.0,29.70,NNW,337,5.4,8.2,64,0.00,,,0.00,Rainwise IP-100,2013-03-07 16:08:00,
2013-03-07 11:13:00,35.1,24.0,29.70,ENE,67,9.1,9.1,63,0.00,,,0.00,Rainwise IP-100,2013-03-07 16:13:00,
2013-03-07 11:18:00,34.9,24.0,29.70,NNE,22,9.1,11.9,63,0.00,,,0.00,Rainwise IP-100,2013-03-07 16:18:00,
2013-03-07 11:23:00,34.9,24.0,29.70,ENE,67,5.8,10.7,64,0.00,,,0.00,Rainwise IP-100,2013-03-07 16:23:00,
2013-03-07 11:29:00,35.1,24.0,29.70,NE,45,2.3,10.5,63,0.00,,,0.00,Rainwise IP-100,2013-03-07 16:29:00,
2013-03-07 11:34:00,35.4,24.0,29.70,East,90,5.4,6.8,63,0.00,,,0.00,Rainwise IP-100,2013-03-07 16:34:00,
2013-03-07 11:39:00,35.4,24.0,29.70,ENE,67,7.5,10.3,63,0.00,,,0.00,Rainwise IP-100,2013-03-07 16:39:00,
2013-03-07 11:44:00,35.1,24.0,29.70,ENE,67,3.3,8.9,63,0.00,,,0.00,Rainwise IP-100,2013-03-07 16:44:00,
2013-03-07 11:49:00,35.0,24.0,29.70,NNE,22,4.9,9.1,63,0.00,,,0.00,Rainwise IP-100,2013-03-07 16:49:00,
2013-03-07 11:54:00,35.2,24.0,29.70,ENE,67,5.6,8.9,63,0.00,,,0.00,Rainwise IP-100,2013-03-07 16:54:00,
2013-03-07 11:59:00,35.4,24.0,29.70,ENE,67,5.8,9.1,63,0.00,,,0.00,Rainwise IP-100,2013-03-07 16:59:00,
2013-03-07 12:04:00,35.4,24.0,29.69,ENE,67,3.3,9.8,63,0.00,,,0.00,Rainwise IP-100,2013-03-07 17:04:00,
2013-03-07 12:09:00,35.4,24.0,29.70,ENE,67,10.0,10.3,64,0.00,,,0.00,Rainwise IP-100,2013-03-07 17:09:00,
2013-03-07 12:14:00,35.2,24.0,29.69,ENE,67,7.7,11.7,64,0.00,,,0.00,Rainwise IP-100,2013-03-07 17:14:00,
2013-03-07 12:19:00,35.2,24.0,29.69,ENE,67,5.6,10.5,63,0.00,,,0.00,Rainwise IP-100,2013-03-07 17:19:00,
2013-03-07 12:24:00,35.5,24.0,29.69,ENE,67,5.8,9.3,63,0.00,,,0.00,Rainwise IP-100,2013-03-07 17:24:00,
2013-03-07 12:29:00,35.7,24.0,29.69,NNE,22,6.8,8.4,63,0.00,,,0.00,Rainwise IP-100,2013-03-07 17:29:00,
2013-03-07 12:34:00,35.8,24.0,29.69,ENE,67,5.6,8.6,63,0.00,,,0.00,Rainwise IP-100,2013-03-07 17:34:00,
2013-03-07 12:39:00,35.8,24.0,29.69,NE,45,7.7,9.3,62,0.00,,,0.00,Rainwise IP-100,2013-03-07 17:39:00,
2013-03-07 12:45:00,35.8,24.0,29.68,ENE,67,5.1,11.9,62,0.00,,,0.00,Rainwise IP-100,2013-03-07 17:45:00,
2013-03-07 12:50:00,36.1,24.0,29.68,NNE,22,4.2,12.4,62,0.00,,,0.00,Rainwise IP-100,2013-03-07 17:50:00,
2013-03-07 12:55:00,36.5,26.0,29.68,North,360,6.8,12.1,62,0.00,,,0.00,Rainwise IP-100,2013-03-07 17:55:00,
2013-03-07 13:00:00,36.6,24.0,29.69,ENE,67,4.4,13.8,61,0.00,,,0.00,Rainwise IP-100,2013-03-07 18:00:00,
2013-03-07 13:05:00,36.6,24.0,29.68,ENE,67,11.2,11.7,61,0.00,,,0.00,Rainwise IP-100,2013-03-07 18:05:00,
2013-03-07 13:10:00,36.7,24.0,29.68,NNE,22,9.3,11.9,61,0.00,,,0.00,Rainwise IP-100,2013-03-07 18:10:00,
2013-03-07 13:15:00,37.0,24.0,29.67,NNE,22,8.6,11.7,61,0.00,,,0.00,Rainwise IP-100,2013-03-07 18:15:00,
2013-03-07 13:20:00,37.1,24.0,29.67,NE,45,6.8,14.2,60,0.00,,,0.00,Rainwise IP-100,2013-03-07 18:20:00,
2013-03-07 13:25:00,37.0,24.0,29.67,NNW,337,6.1,13.8,60,0.00,,,0.00,Rainwise IP-100,2013-03-07 18:25:00,
2013-03-07 13:30:00,37.2,24.0,29.67,NNE,22,5.8,13.5,60,0.00,,,0.00,Rainwise IP-100,2013-03-07 18:30:00,
2013-03-07 13:35:00,37.2,24.0,29.67,ENE,67,7.2,14.5,60,0.00,,,0.00,Rainwise IP-100,2013-03-07 18:35:00,
2013-03-07 13:41:00,37.0,24.0,29.67,NE,45,7.9,14.0,60,0.00,,,0.00,Rainwise IP-100,2013-03-07 18:41:00,
2013-03-07 13:46:00,37.1,24.0,29.67,ENE,67,7.5,13.8,60,0.00,,,0.00,Rainwise IP-100,2013-03-07 18:46:00,
2013-03-07 13:51:00,37.1,24.0,29.67,ENE,67,12.4,18.9,59,0.00,,,0.00,Rainwise IP-100,2013-03-07 18:51:00,
2013-03-07 13:56:00,37.1,24.0,29.67,NE,45,10.0,15.9,60,0.00,,,0.00,Rainwise IP-100,2013-03-07 18:56:00,
2013-03-07 14:01:00,37.1,24.0,29.66,ENE,67,10.3,16.6,60,0.00,,,0.00,Rainwise IP-100,2013-03-07 19:01:00,
2013-03-07 14:06:00,37.0,24.0,29.66,NE,45,8.6,18.9,60,0.00,,,0.00,Rainwise IP-100,2013-03-07 19:06:00,
2013-03-07 14:11:00,37.0,24.0,29.67,North,360,9.8,18.9,60,0.00,,,0.00,Rainwise IP-100,2013-03-07 19:11:00,
2013-03-07 14:16:00,37.4,24.0,29.66,NNE,22,3.5,12.6,60,0.00,,,0.00,Rainwise IP-100,2013-03-07 19:16:00,
2013-03-07 14:21:00,37.8,26.0,29.66,NE,45,6.3,14.0,59,0.00,,,0.00,Rainwise IP-100,2013-03-07 19:21:00,
2013-03-07 14:27:00,37.7,26.0,29.66,NNE,22,4.0,14.2,59,0.00,,,0.00,Rainwise IP-100,2013-03-07 19:27:00,
2013-03-07 14:33:00,37.5,26.0,29.66,ENE,67,7.0,12.1,59,0.00,,,0.00,Rainwise IP-100,2013-03-07 19:33:00,
2013-03-07 14:38:00,37.6,26.0,29.66,NNW,337,5.4,11.2,59,0.00,,,0.00,Rainwise IP-100,2013-03-07 19:38:00,
2013-03-07 14:43:00,37.7,26.0,29.66,NNW,337,10.5,15.9,59,0.00,,,0.00,Rainwise IP-100,2013-03-07 19:43:00,
2013-03-07 14:48:00,37.8,26.0,29.66,North,360,14.0,16.3,59,0.00,,,0.00,Rainwise IP-100,2013-03-07 19:48:00,
2013-03-07 14:53:00,37.8,26.0,29.67,NNW,337,7.2,14.2,59,0.00,,,0.00,Rainwise IP-100,2013-03-07 19:53:00,
2013-03-07 14:58:00,37.8,26.0,29.66,ENE,67,8.4,13.1,59,0.00,,,0.00,Rainwise IP-100,2013-03-07 19:58:00,
2013-03-07 15:03:00,37.7,26.0,29.67,NE,45,6.5,10.3,59,0.00,,,0.00,Rainwise IP-100,2013-03-07 20:03:00,
2013-03-07 15:08:00,37.6,26.0,29.67,North,360,9.6,9.6,59,0.00,,,0.00,Rainwise IP-100,2013-03-07 20:08:00,
2013-03-07 15:13:00,37.8,26.0,29.67,North,360,7.9,10.5,59,0.00,,,0.00,Rainwise IP-100,2013-03-07 20:13:00,
2013-03-07 15:18:00,37.9,26.0,29.67,NNW,337,10.7,10.7,59,0.00,,,0.00,Rainwise IP-100,2013-03-07 20:18:00,
2013-03-07 15:23:00,37.7,26.0,29.67,North,360,15.9,15.9,59,0.00,,,0.00,Rainwise IP-100,2013-03-07 20:23:00,
2013-03-07 15:28:00,37.6,26.0,29.68,North,360,4.2,16.8,59,0.00,,,0.00,Rainwise IP-100,2013-03-07 20:28:00,
2013-03-07 15:33:00,37.5,26.0,29.67,NNE,22,4.0,13.3,59,0.00,,,0.00,Rainwise IP-100,2013-03-07 20:33:00,
2013-03-07 15:38:00,37.5,26.0,29.67,NE,45,6.1,8.2,59,0.00,,,0.00,Rainwise IP-100,2013-03-07 20:38:00,
2013-03-07 15:44:00,37.4,24.0,29.67,NNE,22,6.5,11.4,60,0.00,,,0.00,Rainwise IP-100,2013-03-07 20:44:00,
2013-03-07 15:49:00,37.3,24.0,29.67,ENE,67,10.3,11.4,60,0.00,,,0.00,Rainwise IP-100,2013-03-07 20:49:00,
2013-03-07 15:54:00,37.0,24.0,29.68,ENE,67,6.1,12.6,61,0.00,,,0.00,Rainwise IP-100,2013-03-07 20:54:00,
2013-03-07 15:59:00,36.8,26.0,29.68,NNE,22,4.0,13.8,62,0.00,,,0.00,Rainwise IP-100,2013-03-07 20:59:00,
2013-03-07 16:04:00,36.7,26.0,29.68,ENE,67,10.5,10.5,62,0.00,,,0.00,Rainwise IP-100,2013-03-07 21:04:00,
2013-03-07 16:09:00,36.8,26.0,29.68,North,360,7.2,16.8,62,0.00,,,0.00,Rainwise IP-100,2013-03-07 21:09:00,
2013-03-07 16:14:00,36.7,26.0,29.68,North,360,4.0,11.7,63,0.00,,,0.00,Rainwise IP-100,2013-03-07 21:14:00,
2013-03-07 16:19:00,36.5,26.0,29.68,ENE,67,8.6,14.5,63,0.00,,,0.00,Rainwise IP-100,2013-03-07 21:19:00,
2013-03-07 16:24:00,36.3,24.0,29.67,North,360,6.8,16.6,64,0.00,,,0.00,Rainwise IP-100,2013-03-07 21:24:00,
2013-03-07 16:29:00,36.1,26.0,29.68,North,360,7.9,11.9,66,0.00,,,0.00,Rainwise IP-100,2013-03-07 21:29:00,
2013-03-07 16:34:00,35.9,26.0,29.68,NNE,22,6.3,18.9,66,0.00,,,0.00,Rainwise IP-100,2013-03-07 21:34:00,
2013-03-07 16:39:00,35.8,26.0,29.68,NNW,337,10.5,16.8,67,0.00,,,0.00,Rainwise IP-100,2013-03-07 21:39:00,
2013-03-07 16:44:00,35.9,26.0,29.68,North,360,4.7,13.8,67,0.00,,,0.00,Rainwise IP-100,2013-03-07 21:44:00,
2013-03-07 16:49:00,35.9,26.0,29.68,NNW,337,10.0,12.1,67,0.00,,,0.00,Rainwise IP-100,2013-03-07 21:49:00,
2013-03-07 16:54:00,35.8,26.0,29.69,NNW,337,8.2,11.7,68,0.00,,,0.00,Rainwise IP-100,2013-03-07 21:54:00,
2013-03-07 17:00:00,35.7,26.0,29.68,NNE,22,9.1,10.0,68,0.00,,,0.00,Rainwise IP-100,2013-03-07 22:00:00,
2013-03-07 17:05:00,35.6,26.0,29.69,NNE,22,4.9,11.7,69,0.00,,,0.00,Rainwise IP-100,2013-03-07 22:05:00,
2013-03-07 17:10:00,35.4,26.0,29.69,NNE,22,6.1,8.9,70,0.00,,,0.00,Rainwise IP-100,2013-03-07 22:10:00,
2013-03-07 17:15:00,35.4,26.0,29.69,NNW,337,3.0,7.9,70,0.00,,,0.00,Rainwise IP-100,2013-03-07 22:15:00,
2013-03-07 17:20:00,35.4,26.0,29.69,NNW,337,8.4,10.5,70,0.00,,,0.00,Rainwise IP-100,2013-03-07 22:20:00,
2013-03-07 17:25:00,35.2,26.0,29.69,NNW,337,9.6,12.1,71,0.00,,,0.00,Rainwise IP-100,2013-03-07 22:25:00,
2013-03-07 17:30:00,35.0,26.0,29.69,NNW,337,8.2,11.0,71,0.00,,,0.00,Rainwise IP-100,2013-03-07 22:30:00,
2013-03-07 17:35:00,34.8,28.0,29.69,NNE,22,4.4,11.7,73,0.00,,,0.00,Rainwise IP-100,2013-03-07 22:35:00,
2013-03-07 17:40:00,34.6,28.0,29.69,NNW,337,7.9,10.7,74,0.00,,,0.00,Rainwise IP-100,2013-03-07 22:40:00,
2013-03-07 17:45:00,34.4,28.0,29.69,NNE,22,6.1,9.1,74,0.00,,,0.00,Rainwise IP-100,2013-03-07 22:45:00,
2013-03-07 17:50:00,34.4,28.0,29.69,NNW,337,3.3,8.4,75,0.00,,,0.00,Rainwise IP-100,2013-03-07 22:50:00,
2013-03-07 17:55:00,34.3,28.0,29.69,North,360,2.6,8.4,75,0.00,,,0.00,Rainwise IP-100,2013-03-07 22:55:00,
2013-03-07 18:00:00,34.2,28.0,29.70,North,360,5.1,10.3,76,0.00,,,0.00,Rainwise IP-100,2013-03-07 23:00:00,
2013-03-07 18:05:00,34.1,28.0,29.69,NNW,337,4.9,6.8,76,0.00,,,0.00,Rainwise IP-100,2013-03-07 23:05:00,
2013-03-07 18:10:00,34.1,28.0,29.69,North,360,3.3,9.1,77,0.00,,,0.00,Rainwise IP-100,2013-03-07 23:10:00,
2013-03-07 18:16:00,34.0,28.0,29.69,NNW,337,2.6,7.5,77,0.00,,,0.00,Rainwise IP-100,2013-03-07 23:16:00,
2013-03-07 18:21:00,34.0,28.0,29.69,NNW,337,5.8,7.9,77,0.00,,,0.00,Rainwise IP-100,2013-03-07 23:21:00,
2013-03-07 18:26:00,34.0,28.0,29.69,NNW,337,3.0,10.0,77,0.00,,,0.00,Rainwise IP-100,2013-03-07 23:26:00,
2013-03-07 18:31:00,34.0,28.0,29.69,North,360,4.2,7.7,77,0.00,,,0.00,Rainwise IP-100,2013-03-07 23:31:00,
2013-03-07 18:36:00,34.0,29.0,29.69,NNE,22,4.2,7.7,78,0.00,,,0.00,Rainwise IP-100,2013-03-07 23:36:00,
2013-03-07 18:41:00,34.1,28.0,29.69,NNW,337,3.7,6.1,77,0.00,,,0.00,Rainwise IP-100,2013-03-07 23:41:00,
2013-03-07 18:46:00,34.1,28.0,29.69,NE,45,0.0,8.2,77,0.00,,,0.00,Rainwise IP-100,2013-03-07 23:46:00,
2013-03-07 18:51:00,34.1,28.0,29.69,NNW,337,11.2,13.3,77,0.00,,,0.00,Rainwise IP-100,2013-03-07 23:51:00,
2013-03-07 18:56:00,34.4,28.0,29.69,NNW,337,6.8,15.4,75,0.00,,,0.00,Rainwise IP-100,2013-03-07 23:56:00,
2013-03-07 19:01:00,34.7,28.0,29.69,North,360,7.7,13.3,73,0.00,,,0.00,Rainwise IP-100,2013-03-08 00:01:00,
2013-03-07 19:06:00,34.7,26.0,29.69,North,360,10.7,13.5,72,0.00,,,0.00,Rainwise IP-100,2013-03-08 00:06:00,
2013-03-07 19:11:00,34.8,26.0,29.69,NNW,337,11.9,14.2,72,0.00,,,0.00,Rainwise IP-100,2013-03-08 00:11:00,
2013-03-07 19:16:00,34.8,26.0,29.69,NNW,337,6.1,16.3,71,0.00,,,0.00,Rainwise IP-100,2013-03-08 00:16:00,
2013-03-07 19:21:00,34.8,26.0,29.69,NNE,22,4.0,11.9,71,0.00,,,0.00,Rainwise IP-100,2013-03-08 00:21:00,
2013-03-07 19:26:00,34.8,26.0,29.70,NNW,337,7.0,13.8,70,0.00,,,0.00,Rainwise IP-100,2013-03-08 00:26:00,
2013-03-07 19:32:00,34.8,26.0,29.69,North,360,14.0,14.0,70,0.00,,,0.00,Rainwise IP-100,2013-03-08 00:32:00,
2013-03-07 19:37:00,34.8,26.0,29.69,NNW,337,5.6,14.5,70,0.00,,,0.00,Rainwise IP-100,2013-03-08 00:37:00,
2013-03-07 19:42:00,34.9,26.0,29.69,NNE,22,4.9,12.8,70,0.00,,,0.00,Rainwise IP-100,2013-03-08 00:42:00,
2013-03-07 19:47:00,34.9,26.0,29.69,NNE,22,5.4,10.0,70,0.00,,,0.00,Rainwise IP-100,2013-03-08 00:47:00,
2013-03-07 19:52:00,34.8,26.0,29.69,NNW,337,10.3,10.7,70,0.00,,,0.00,Rainwise IP-100,2013-03-08 00:52:00,
2013-03-07 19:57:00,34.9,26.0,29.69,NNE,22,3.3,12.8,70,0.00,,,0.00,Rainwise IP-100,2013-03-08 00:57:00,
2013-03-07 20:02:00,34.9,26.0,29.69,NNW,337,5.4,8.6,70,0.00,,,0.00,Rainwise IP-100,2013-03-08 01:02:00,
2013-03-07 20:07:00,34.9,26.0,29.69,NNE,22,8.2,13.8,69,0.00,,,0.00,Rainwise IP-100,2013-03-08 01:07:00,
2013-03-07 20:12:00,34.9,26.0,29.69,NNE,22,9.3,12.1,68,0.00,,,0.00,Rainwise IP-100,2013-03-08 01:12:00,
2013-03-07 20:17:00,34.8,26.0,29.69,North,360,6.8,13.8,68,0.00,,,0.00,Rainwise IP-100,2013-03-08 01:17:00,
2013-03-07 20:22:00,34.8,24.0,29.69,ENE,67,7.2,14.2,67,0.00,,,0.00,Rainwise IP-100,2013-03-08 01:22:00,
2013-03-07 20:27:00,34.7,24.0,29.68,North,360,5.8,16.1,67,0.00,,,0.00,Rainwise IP-100,2013-03-08 01:27:00,
2013-03-07 20:32:00,34.7,24.0,29.68,North,360,7.2,14.5,67,0.00,,,0.00,Rainwise IP-100,2013-03-08 01:32:00,
2013-03-07 20:38:00,34.7,24.0,29.68,North,360,7.0,17.3,66,0.00,,,0.00,Rainwise IP-100,2013-03-08 01:38:00,
2013-03-07 20:43:00,34.6,24.0,29.69,NNW,337,9.1,14.9,66,0.00,,,0.00,Rainwise IP-100,2013-03-08 01:43:00,
2013-03-07 20:48:00,34.6,24.0,29.68,NNE,22,7.9,13.1,66,0.00,,,0.00,Rainwise IP-100,2013-03-08 01:48:00,
2013-03-07 20:53:00,34.5,24.0,29.68,North,360,6.1,13.3,66,0.00,,,0.00,Rainwise IP-100,2013-03-08 01:53:00,
2013-03-07 20:58:00,34.5,24.0,29.68,North,360,4.4,15.9,66,0.00,,,0.00,Rainwise IP-100,2013-03-08 01:58:00,
2013-03-07 21:03:00,34.5,24.0,29.68,North,360,5.4,8.2,66,0.00,,,0.00,Rainwise IP-100,2013-03-08 02:03:00,
2013-03-07 21:08:00,34.4,24.0,29.67,North,360,5.4,11.2,66,0.00,,,0.00,Rainwise IP-100,2013-03-08 02:08:00,
2013-03-07 21:13:00,34.5,24.0,29.68,NNW,337,11.9,12.6,66,0.00,,,0.00,Rainwise IP-100,2013-03-08 02:13:00,
2013-03-07 21:18:00,34.5,24.0,29.67,NE,45,2.6,12.6,66,0.00,,,0.00,Rainwise IP-100,2013-03-08 02:18:00,
2013-03-07 21:23:00,34.4,24.0,29.67,NNW,337,7.5,16.8,66,0.00,,,0.00,Rainwise IP-100,2013-03-08 02:23:00,
2013-03-07 21:28:00,34.4,24.0,29.67,NNE,22,4.0,16.3,66,0.00,,,0.00,Rainwise IP-100,2013-03-08 02:28:00,
2013-03-07 21:33:00,34.3,24.0,29.66,North,360,11.7,13.1,66,0.00,,,0.00,Rainwise IP-100,2013-03-08 02:33:00,
2013-03-07 21:38:00,34.1,24.0,29.66,North,360,8.2,14.7,67,0.00,,,0.00,Rainwise IP-100,2013-03-08 02:38:00,
2013-03-07 21:43:00,34.1,24.0,29.66,ENE,67,3.7,19.1,67,0.00,,,0.00,Rainwise IP-100,2013-03-08 02:43:00,
2013-03-07 21:48:00,34.0,24.0,29.66,NNW,337,5.8,15.2,67,0.00,,,0.00,Rainwise IP-100,2013-03-08 02:48:00,
2013-03-07 21:54:00,34.0,26.0,29.66,NNW,337,8.4,12.1,68,0.00,,,0.00,Rainwise IP-100,2013-03-08 02:54:00,
2013-03-07 21:59:00,34.0,26.0,29.66,NNE,22,9.3,13.1,68,0.00,,,0.00,Rainwise IP-100,2013-03-08 02:59:00,
2013-03-07 22:04:00,33.9,26.0,29.66,NNW,337,12.4,15.4,68,0.00,,,0.00,Rainwise IP-100,2013-03-08 03:04:00,
2013-03-07 22:09:00,33.8,26.0,29.66,NNE,22,8.6,16.3,69,0.00,,,0.00,Rainwise IP-100,2013-03-08 03:09:00,
2013-03-07 22:14:00,33.4,24.0,29.66,NNW,337,6.1,20.3,70,0.00,,,0.00,Rainwise IP-100,2013-03-08 03:14:00,
2013-03-07 22:19:00,33.1,26.0,29.66,North,360,8.4,13.5,72,0.00,,,0.00,Rainwise IP-100,2013-03-08 03:19:00,
2013-03-07 22:24:00,32.9,26.0,29.66,North,360,2.1,11.2,73,0.00,,,0.00,Rainwise IP-100,2013-03-08 03:24:00,
2013-03-07 22:29:00,32.8,26.0,29.65,NNW,337,7.0,11.2,74,0.00,,,0.00,Rainwise IP-100,2013-03-08 03:29:00,
2013-03-07 22:34:00,32.7,26.0,29.65,North,360,7.2,10.0,75,0.00,,,0.00,Rainwise IP-100,2013-03-08 03:34:00,
2013-03-07 22:39:00,32.6,26.0,29.66,NNE,22,4.4,10.3,75,0.00,,,0.00,Rainwise IP-100,2013-03-08 03:39:00,
2013-03-07 22:44:00,32.4,26.0,29.66,North,360,6.5,10.7,76,0.00,,,0.00,Rainwise IP-100,2013-03-08 03:44:00,
2013-03-07 22:49:00,32.3,26.0,29.65,North,360,7.0,10.0,77,0.00,,,0.00,Rainwise IP-100,2013-03-08 03:49:00,
2013-03-07 22:54:00,32.1,26.0,29.65,NNW,337,3.3,9.6,78,0.00,,,0.00,Rainwise IP-100,2013-03-08 03:54:00,
2013-03-07 22:59:00,31.9,26.0,29.66,North,360,4.4,11.0,79,0.00,,,0.00,Rainwise IP-100,2013-03-08 03:59:00,
2013-03-07 23:04:00,31.8,28.0,29.66,NNW,337,6.8,7.0,81,0.00,,,0.00,Rainwise IP-100,2013-03-08 04:04:00,
2013-03-07 23:10:00,31.6,28.0,29.66,NNW,337,3.3,7.7,82,0.00,,,0.00,Rainwise IP-100,2013-03-08 04:10:00,
2013-03-07 23:15:00,31.5,28.0,29.66,North,360,7.5,9.6,82,0.00,,,0.00,Rainwise IP-100,2013-03-08 04:15:00,
2013-03-07 23:20:00,31.4,26.0,29.66,ENE,67,3.3,7.5,83,0.00,,,0.00,Rainwise IP-100,2013-03-08 04:20:00,
2013-03-07 23:25:00,31.1,26.0,29.65,NNW,337,3.7,8.9,83,0.00,,,0.00,Rainwise IP-100,2013-03-08 04:25:00,
2013-03-07 23:30:00,31.0,26.0,29.66,NNW,337,2.1,7.7,84,0.00,,,0.00,Rainwise IP-100,2013-03-08 04:30:00,
2013-03-07 23:35:00,30.8,26.0,29.66,NNE,22,6.1,7.2,85,0.00,,,0.00,Rainwise IP-100,2013-03-08 04:35:00,
2013-03-07 23:40:00,30.6,28.0,29.66,NNE,22,4.7,8.4,87,0.00,,,0.00,Rainwise IP-100,2013-03-08 04:40:00,
2013-03-07 23:45:00,30.4,28.0,29.66,ENE,67,3.3,10.7,88,0.00,,,0.00,Rainwise IP-100,2013-03-08 04:45:00,
2013-03-07 23:50:00,30.2,28.0,29.66,North,360,6.3,7.7,89,0.00,,,0.00,Rainwise IP-100,2013-03-08 04:50:00,
2013-03-07 23:55:00,30.0,28.0,29.67,NNE,22,4.0,7.7,90,0.00,,,0.00,Rainwise IP-100,2013-03-08 04:55:00,